Weather in Likhoy

Russia / Rostov Oblast     48°07′27″N   40°12′02″E
temp.,
°C
wind,
m/s
gust,
m/s
humid.,
%
clouds,
%
prec.,
mm/h
press.,
hPa
HPBL,
m
4 march, thu
thu400:00−2wnw37780 0.0 1023242
03:00−2wsw47770 0.0 1023189
06:00−2sw59730 0.0 1022260
09:00+1wsw813590 0.0 1022679
12:00+5wsw913471 0.0 10201046
15:00+5wsw913520 0.0 10181105
18:00+3sw815690 0.0 1016646
21:00+2sw918700 0.0 1015544
5 march, fri
fri500:00+2sw10198592 0.0 1014667
03:00+2sw10208380 0.0 1014675
06:00+2wsw9178987 0.0 1013700
09:00+3wsw9148593 0.0 1013737
12:00+5wsw91382100 0.0 1014823
15:00+5wsw71286100 0.1 1013651
18:00+5sw61284100 0.0 1014544
21:00+5sw71487100 0.0 1014636
6 march, sat
sat600:00+4sw81587100 0.0 1013511
03:00+3sw71590100 0.0 1012549
06:00+4sw61392100 0.0 1010499
09:00+4wsw61194100 0.4 1010531
12:00+3nw5894100 0.6 1011456
15:00+1nnw6992100 0.8 1012645
18:000nnw6986100 0.2 1014769
21:00−2nw101377100 0.4 1017827
7 march, sun
sun700:00−3nw8116139 0.0 10191121
03:00−4nw7116123 0.0 10211233
06:00−4nw7106574 0.0 10231100
09:00−3wnw685561 0.0 1025936
12:000w57420 0.0 10241344
15:00+1wsw79390 0.0 10221425
18:00−1sw6125118 0.0 1020663
21:00−2sw8156620 0.0 1019623
8 march, mon
mon800:00−2wsw7156816 0.0 1018678
03:00−1wsw715618 0.0 1016655
06:00−2wsw815670 0.0 1015661
09:00+1wsw9156245 0.0 1015962
12:00+5wsw10154665 0.0 10141730
15:00+5wsw9145082 0.0 10131921
18:00+2wsw7129194 0.1 1013567
21:00+1sw6138593 0.2 1014511